Preview of NWS' New Version of Forecast
This preview is not operational and should not be used for support decisions.

Regional Weather Roundup (RWR)

Issued by National Weather Service (NWS)

                            
000
ASUS43 KMKX 201720
RWRWI 

WISCONSIN REGIONAL WEATHER ROUNDUP
NATIONAL WEATHER SERVICE MILWAUKEE/SULLIVAN WI
1200 PM CDT WED MAR 20 2019

NOTE: "FAIR" INDICATES FEW OR NO CLOUDS BELOW 12,000 FEET WITH NO
SIGNIFICANT WEATHER AND/OR OBSTRUCTIONS TO VISIBILITY.

WIZ001-002-006>008-014>016-023>028-201800-
NORTHWEST WISCONSIN
  
CITY           SKY/WX    TMP DP  RH WIND       PRES   REMARKS
SUPERIOR ARPT  CLOUDY    39  30  69 N7        29.91R WCI  34          
ASHLAND        CLOUDY    37  33  85 W5        29.87R WCI  33          
HAYWARD        LGT SNOW  36  31  82 NW3       29.86S                  
SIREN          FLURRIES  36  30  80 NW7       29.89S WCI  30          
CUMBERLAND     CLOUDY    32  28  86 NW8       29.88R WCI  25          
RICE LAKE      CLOUDY    35  32  89 NW5       29.90R WCI  31          
CHETEK         CLOUDY    35  31  85 NW6       29.88S WCI  30          
LADYSMITH      CLOUDY    35  31  84 W7        29.88S WCI  30          
EAU CLAIRE     CLOUDY    35  29  78 W7        29.88F WCI  29          
MENOMONIE      CLOUDY    32  27  79 W8        29.90R WCI  25          
NEW RICHMOND   CLOUDY    35  29  78 NW9       29.90S WCI  28          
OSCEOLA        CLOUDY    36  31  83 NW6       29.93S WCI  31          
$$
 
WIZ003>005-009-010-017-018-201800-
NORTH CENTRAL WISCONSIN
  
CITY           SKY/WX    TMP DP  RH WIND       PRES   REMARKS
MANITOWISH WTR NOT AVBL                                               
ARBOR VITAE    LGT SNOW  37  35  93 W3        29.82S                  
WOODRUFF       LGT SNOW  37  35  93 W3        29.82S                  
RHINELANDER    LGT SNOW  37  31  78 W12       29.83S WCI  29          
EAGLE RIVER    LGT SNOW  34  32  94 W7        29.82S WCI  27          
LAND O LAKES   LGT SNOW  34  32  92 W3        29.83S                  
PHILLIPS       CLOUDY    33  32  96 W6        29.83S WCI  27          
TOMAHAWK       MIX PCPN  34  32  92 W5        29.84S WCI  30          
MEDFORD        LGT SNOW  32  30  93 W7        29.85S WCI  26          
MERRILL        CLOUDY    37  31  78 W14       29.85S WCI  28          
$$
 
WIZ029-030-035-036-043>047-201800-
CENTRAL WISCONSIN
  
CITY           SKY/WX    TMP DP  RH WIND       PRES   REMARKS
WAUSAU         CLOUDY    38  29  70 W13G18    29.84F WCI  30          
MOSINEE        PTSUNNY   39  32  75 W12       29.86F WCI  32          
MARSHFIELD     CLOUDY    38  30  73 W10       29.85S WCI  31          
STEVENS POINT  CLOUDY    40  29  65 SW10      29.86F WCI  34          
WAUPACA        PTSUNNY   46  33  61 SW5       29.89F                  
WAUTOMA        CLOUDY    44  34  67 SW9       29.90F                  
WISC RAPIDS    CLOUDY    44  27  51 SW10      29.87F                  
CAMP DOUGLAS   CLOUDY    45  32  61 SW9       29.88F                  
$$
 
WIZ011>013-019>022-031-037>040-048>050-201800-
NORTHEAST WISCONSIN
  
CITY           SKY/WX    TMP DP  RH WIND       PRES   REMARKS
ANTIGO         CLOUDY    35  30  82 S7        29.83F WCI  29          
SHAWANO        NOT AVBL                                               
OCONTO         CLOUDY    40  31  69 SW10      29.89S WCI  34          
STURGEON BAY   LGT RAIN  40  32  73 S9        29.91F WCI  34          
GREEN BAY      CLOUDY    41  33  73 S8        29.91F                  
MANITOWOC      CLOUDY    43  33  68 S9        29.93F                  
APPLETON       CLOUDY    41  30  65 SW10      29.89F                  
CLINTONVILLE   PTSUNNY   41  32  69 S7        29.87F                  
OSHKOSH        PTSUNNY   43  35  73 S15G22    29.89F                  
$$
 
WIZ032>034-041-042-053>061-201800-
SOUTHWEST WISCONSIN
  
CITY           SKY/WX    TMP DP  RH WIND       PRES   REMARKS
LA CROSSE      PTSUNNY   43  32  65 W14G28    29.90F                  
SPARTA         PTSUNNY   46  33  61 W16       29.90                   
VIROQUA        FAIR      43  35  72 SW15G21   29.89F                  
BOSCOBEL       FAIR      49  36  61 SW14G21   29.94F                  
PRAIRIE DU CHI PTSUNNY   46  32  59 SW10      29.95F                  
PLATTEVILLE    FAIR      46  40  81 SW10      29.95F                  
$$

WIZ056-057-062-063-064-067-068-201800-
SOUTH CENTRAL WISCONSIN
  
CITY           SKY/WX    TMP DP  RH WIND       PRES   REMARKS
REEDSBURG      CLOUDY    45  35  68 SW13      29.90F                  
BARABOO/DELLS  CLOUDY    46  35  66 SW12G17   29.89F                  
LONE ROCK      FAIR      47  36  65 SW13G22   29.92F                  
MINERAL POINT  FAIR      45  39  81 SW9       29.93F                  
MADISON        CLOUDY    44  34  67 S10       29.92F                  
MIDDLETON      FAIR      46  36  68 SW12      29.92F                  
WATERTOWN      CLOUDY    43  37  82 SW12      29.93F                  
MONROE         CLOUDY    40  36  84 MISG      29.95F                  
JANESVILLE     CLOUDY    41  41 100 SW6       29.98F FOG              
$$
 
WIZ051-052-058>065-066-070>072-201800-
SOUTHEAST WISCONSIN
  
CITY           SKY/WX    TMP DP  RH WIND       PRES   REMARKS
MILWAUKEE      CLOUDY    42  34  73 SW13      29.97F                  
WAUKESHA       CLOUDY    43  36  75 SW10G17   29.97F                  
MILWAUKEE/TIMM CLOUDY    43  34  70 SW12G17   29.97F                  
RACINE         CLOUDY    42  36  79 SW12      29.99F                  
KENOSHA        CLOUDY    42  38  85 SW9       29.99F                  
FOND DU LAC    FAIR      43  34  70 SW14G23   29.91F                  
SHEBOYGAN      FAIR      43  34  70 SW13      29.93F                  
WEST BEND      FAIR      43  34  70 SW8       29.94F                  
JUNEAU         FAIR      42  35  76 S15       29.94F                  
$$

LSZ147-162-201800-
LAKE SUPERIOR
  
STATION/POSITION TIME  TEMP    WIND        PRES    WAVE
                       AIR SEA DIR/SP/G            HT/PER
                 (UTC) (F)     (DEG/KT/KT) (MB)    (FT/S)
DEVILS ISLAND    1700   35     280/  7/  8 1012.0R
SAXON HARBOR     1640   36     260/  4/  7 1011.2R
$$
 
LMZ867-665-643>646-201800-
LAKE MICHIGAN
  
STATION/POSITION TIME  TEMP    WIND        PRES    WAVE
                       AIR SEA DIR/SP/G            HT/PER
                 (UTC) (F)     (DEG/KT/KT) (MB)    (FT/S)
NORTHPORT PIER   1630   40     230/  5/  8 1012.5S
KEWAUNEE LAKESHO 1654   40     210/  7/ 12 1012.3F
SHEBOYGAN LAKESH 1700   38     170/ 16/ 17 1014.1F
PORT WASHINGTON  1640   47     190/  7/ 11 1015.6F
MILWAUKEE LAKESH 1650   41                   N/A
KENOSHA   LAKESH 1700   41     230/  7/ 11 1015.6
$$

TC  - TEMPERATURE IN CELSIUS
VSB - VISIBILITY IN STATUTE MILES
WCI - WIND CHILL INDEX
HX  - HEAT INDEX